Regional Weather Roundup
Issued by NWS Charleston, SC

Current Version | Previous Version | Graphics & Text | Print | Product List | Glossary On
Versions: 1 2 3 4 5 6 7 8 9 10 11 12 13 14 15 16 17 18 19 20 21 22 23 24 25 26 27 28 29 30 31 32 33 34 35 36 37 38 39 40 41 42 43 44 45 46 47 48 49 50
065 ASUS42 KCHS 242112 RWRCHS REGIONAL WEATHER ROUNDUP NATIONAL WEATHER SERVICE CHARLESTON SC 500 PM EDT WED MAY 24 2017 NOTE: "FAIR" INDICATES FEW OR NO CLOUDS BELOW 12,000 FEET WITH NO SIGNIFICANT WEATHER AND/OR OBSTRUCTIONS TO VISIBILITY. NOT ALL STATIONS ARE QUALITY CONTROLLED. USE DATA WITH CAUTION... ESPECIALLY DEWPOINT OBSERVATIONS. SCZ027-030-031-034>040-042>050-242200- ...SOUTHEAST SOUTH CAROLINA... CITY SKY/WX TMP DP RH WIND PRES REMARKS N CHARLESTON CLOUDY 72 69 90 S14G22 29.58F WATERFRONT PRK N/A 71 70 96 S12 29.57F JOHNS ISLAND MOCLDY 73 70 88 S14 29.59F PINOPOLIS N/A 72 66 83 S9 29.48F MONCKS CORNER FAIR 70 66 88 S10 29.57F SUMMERVILLE FAIR 70 66 88 S9G16 29.59R BEAUFORT MCAS CLOUDY 73 71 93 S9 29.58F BEAUFORT ARPT MOCLDY 72 70 94 S13G18 29.58F FOG HILTON HEAD IS PTSUNNY 73 72 94 S16 29.60F WALTERBORO CLOUDY 72 68 88 S10G16 29.58F ALLENDALE CLOUDY 72 66 83 SE10G17 29.54F ...SOUTHERN MIDLANDS AND PEE DEE... CITY SKY/WX TMP DP RH WIND PRES REMARKS GEORGETOWN CLOUDY 72 70 94 S14G23 29.62F KINGSTREE FAIR 72 63 73 S13G20 29.55F ORANGEBURG CLOUDY 71 66 84 S9 29.55F BARNWELL FAIR 75 68 78 S12G20 29.55F AIKEN RAIN 68 66 94 S15G21 29.57S MANNING FAIR 72 68 88 SW22 29.57S COLUMBIA CLOUDY 74 67 78 S12 29.54S SUMTER PTSUNNY 71 64 81 S17G23 29.54S FLORENCE CLOUDY 71 68 90 SW6 29.57R MYRTLE BEACH MOSUNNY 75 70 83 S17G25 29.61F N MYRTLE BEACH CLOUDY 77 68 73 SW24G31 29.60F $$ GAZ063-065-086>088-099>101-113>116-118-119-134>141-150-242200- ...SOUTHEAST GEORGIA... CITY SKY/WX TMP DP RH WIND PRES REMARKS SAVANNAH ARPT LGT RAIN 75 69 81 S10 29.60R HUNTER AAF CLOUDY 73 73 100 S7 29.58R FORT STEWART LGT RAIN 71 68 89 SE7 29.57F STATESBORO CLOUDY 72 72 100 S9 29.56F SYLVANIA CLOUDY 72 69 90 S6 29.58F CLAXTON MOCLDY N/A N/A N/A SE6 29.57F ...CSRA...CENTRAL AND FAR SOUTHEAST GEORGIA... CITY SKY/WX TMP DP RH WIND PRES REMARKS THOMSON CLOUDY 68 67 96 SW5 29.57F AUGUSTA-BUSH LGT RAIN 71 67 87 S10 29.53S FOG AUGUSTA-DANIEL LGT RAIN 71 66 84 S8 29.53F SWAINSBORO MOCLDY 75 68 78 S10G16 29.55F VIDALIA CLOUDY 73 70 88 S13 29.57F EASTMAN LGT RAIN 67 67 97 S8 29.58F HAZLEHURST CLOUDY 74 71 90 SW13 29.57R ALMA CLOUDY 73 70 90 S12 29.57F WAYCROSS CLOUDY 76 76 100 S10G16 29.58F JESUP LGT RAIN 73 70 88 S8 29.60F BAXLEY LGT RAIN 72 72 100 S10 29.57S BRUNSWICK LGT RAIN 72 72 100 S10 29.62F SAINT SIMONS LGT RAIN 74 71 91 S10G18 29.63S $$ SCZ027-028-034-036>038-045-046-048>050-GAZ119-141-242200- ...LAKE AND SUPPLEMENTAL COASTAL OBSERVATIONS... STATION/POSITION TIME TEMP WIND PRES WAVE SWELL AIR SEA DIR/SP/G HT/PER HT/PER/DIR (UTC) (F) (DEG/KT/KT) (MB) (FT/S) (FT/S/D) WINYAH BAY 1945 78 220/ 21 1003.0 LAKE MURRAY 2020 67 290/ 8/ 16 1000.0 ACE BASIN NERRS 1945 70 170/ 2 1004.0 FORT PULASKI 2048 74 170/ 8/ 14 1002.4F SAPELO ISLAND 2000 72 170/ 10 1003.0 $$ ANZ835-935-AMZ111-154-330-350-352-354-370-450-454-472-242200- ...C-MAN AND BUOY OBSERVATIONS... STATION/POSITION TIME TEMP WIND PRES WAVE SWELL AIR SEA DIR/SP/G HT/PER HT/PER/DIR (UTC) (F) (DEG/KT/KT) (MB) (FT/S) (FT/S/D) BUOY 41004 2050 72 76 210/ 16/ 19 1004.0S 7/ 6 2/120/11 BUOY 41008 1950 73 78 200/ 12/ 16 1003.3 4/ 5 2/130/ 6 FOLLY BEACH CMAN 2000 73 210/ 26/ 30 1005.1F CAPERS NEARSHORE 2008 76 77 220/ 25/ 33 1003.2F FRIPP NEARSHORE 2008 73 78 180/ 16 1002.0F STATION/POSITION TIME TEMP WIND PRES WAVE SWELL AIR SEA DIR/SP/G HT/PER HT/PER/DIR (UTC) (F) (DEG/KT/KT) (MB) (FT/S) (FT/S/D) 5E ST. MARYS GA 2000 79 N/A 3/ 5 FRYING PAN BUOY 2050 75 77 230/ 21/ 27 1004.0F 6/ 8 3/180/ 8 BUOY 41025 2050 76 75 190/ 8/ 10 1005.7F 4/ 8 3/180/ 8 CAPE LOOKOUT NC 2000 77 200/ 10/ 13 1005.0F BUOY 41002 1950 78 76 190/ 19/ 23 1009.7 8/ 8 2/ 10/24 BUOY 41010 2050 81 79 180/ 19/ 23 1007.0F 6/ 7 2/ 60/12 ST AUGUSTINE FL 2100 72 78 220/ 10/ 15 1005.7F $$

USA.gov is the U.S. government's official web portal to all federal, state and local government web resources and services.